Regional Weather Roundup
Issued by NWS

Home | Current Version | Previous Version | Graphics & Text | Print | Product List | Glossary On
Versions: 1 2 3 4 5 6 7 8 9 10 11 12 13 14 15 16 17 18 19 20 21 22 23 24 25 26 27 28 29 30 31 32 33 34 35 36 37 38 39 40 41 42 43 44 45 46 47 48 49 50
000
ASUS44 KMEG 041000
RWRTN
TENNESSEE HOURLY STATE WEATHER ROUNDUP
NATIONAL WEATHER SERVICE MEMPHIS TN
500 AM CDT SAT JUL 04 2015

TNZ002-004-019-021-049-052-054-088>092-041100-
WEST TENNESSEE

CITY           SKY/WX    TMP DP  RH WIND       PRES   REMARKS
MEMPHIS INTL   CLOUDY    73  69  87 CALM      29.93S
NWS MEMPHIS      N/A     71 N/A N/A MISG        N/A
JACKSON        CLOUDY    71  69  93 CALM      29.93R
DYERSBURG        N/A    N/A N/A N/A MISG        N/A
PARIS          CLOUDY    70  70 100 SW3       29.93R
LEXINGTON      CLOUDY    70  70 100 S6        29.93R
$$

TNZ008-025-027-028-033-062-065-066-041100-
NORTH MIDDLE TENNESSEE

CITY           SKY/WX    TMP DP  RH WIND       PRES   REMARKS
NASHVILLE      PTCLDY    70  70 100 CALM      29.94R
CLARKSVILLE    CLOUDY    71  70  96 W5        29.93R FOG
COOKEVILLE     CLOUDY    70  70 100 SW3       29.95S
CROSSVILLE     CLOUDY    68  64  87 CALM      30.00S
$$

TNZ061-075-076-078-094-096-097-041100-
SOUTH MIDDLE TENNESSEE

CITY           SKY/WX    TMP DP  RH WIND       PRES   REMARKS
FAYETTEVILLE   CLOUDY    66  64  94 SW6       29.99R
TULLAHOMA      CLOUDY    66  64  94 SW8       29.99R
WINCHESTER     CLOUDY    68  66  94 SW5       29.99R
COLUMBIA       CLOUDY    72  72 100 SW5       29.94R
SHELBYVILLE    CLOUDY    72  70  94 S8          N/A
$$

TNZ017-018-042-046-047-041100-
NORTHEAST TENNESSEE

CITY           SKY/WX    TMP DP  RH WIND       PRES   REMARKS
TRI CITIES     CLOUDY    69  65  86 SW8       29.99R
ELIZABETHTON   CLOUDY    68  63  83 W6        30.00R
$$

TNZ012-013-036-069-073-074-041100-
CENTRAL EAST TENNESSEE

CITY           SKY/WX    TMP DP  RH WIND       PRES   REMARKS
KNOXVILLE      LGT RAIN  68  67  96 SW8       29.97R
OAK RIDGE      LGT RAIN  70  66  87 SW6       29.99R
GATLINBURG     PTSUNNY   68  64  88 SW3       29.98R
$$

TNZ083-085-099-041100-
SOUTHEAST TENNESSEE

CITY           SKY/WX    TMP DP  RH WIND       PRES   REMARKS
CHATTANOOGA    CLOUDY    69  67  93 S3        29.99S FOG
$$

SKY/WX REPORTED AS FAIR MEANS FEW OR NO CLOUDS BELOW
12 THOUSAND FEET.




USA.gov is the U.S. government's official web portal to all federal, state and local government web resources and services.